Simultaneous Nadir Overpasses (SNOs) Predictions

Prediction of SNOs over PacNW region [( 10.00, 139.50) to ( 22.70, 165.60)] between AQUA and NPP Satellites:

Table of predicted SNOs over PacNW region for the next 30.0 days since TLE Epoch: 12/24/2022
Index Date (AQUA) Time (AQUA) AQUA Lat,Lon Date (NPP) Time (NPP) NPP Lat,Lon Distance(km) Time Diff (sec)
1 12/30/2022 15:51:29 20.51, 151.07 12/30/2022 15:50:53 21.24, 147.27 402.81 36
2 01/07/2023 14:58:01 22.59, 164.84 01/07/2023 14:59:36 23.59, 160.53 454.71 95
3 01/10/2023 03:18:44 22.64, 152.78 01/10/2023 03:15:48 21.91, 149.12 384.83 176
4 01/18/2023 04:02:37 15.62, 143.01 01/18/2023 04:04:34 14.54, 138.21 529.63 117
5 01/20/2023 16:03:11 11.55, 146.90 01/20/2023 16:00:07 12.23, 143.50 376.75 184
